カタログに戻る

INTELSAT 33E DEB

運用中MEO
NORAD 64399·DEBRIS· XX

打ち上げ Aug 24, 2016 から Guiana Space Centre

Loading…

次のパス (今後24時間)

TLE

最新Source: Space-Track

元期: Sep 13, 2026, 06:01 UTC

1 64399U 16053AD  26256.25085398 -.00000292  00000-0  00000-0 0  9991
2 64399   1.8866  63.9895 0519516  48.7900 316.2822  0.98816013  6698

AllMySatでINTELSAT 33E DEBをリアルタイム追跡

Download on the App Store